GW2819 Weather Reports


Display with metric or nautical units.
time (UTC)temp
F
wind
direction
speed
MPH
gust
MPH
rain 1hr
in
rain 24hr
in
rain mn
in
humidity
%
barometer
mb
20260506002009 60 360 0.0 3.0 0.01 0.01 0.01 89 1006.3
20260506001530 61 360 1.0 3.0 0.00 0.00 0.00 89 1006.1
20260506001010 61 360 2.0 3.0 0.00 0.00 0.00 88 1006.3
20260506000508 61 360 0.0 2.0 0.00 0.00 0.00 88 1006.5
20260506000015 61 360 0.0 2.0 0.00 0.00 0.00 87 1006.5
20260505235508 61 360 0.0 2.0 0.00 0.00 0.00 86 1006.5
20260505235008 62 360 0.0 2.0 0.00 0.00 0.00 85 1006.6
20260505234518 62 360 0.0 2.0 0.00 0.00 0.00 84 1006.4
20260505234006 62 360 0.0 2.0 0.00 0.00 0.00 84 1006.3
20260505233507 62 360 0.0 2.0 0.00 0.00 0.00 84 1006.3
20260505233022 62 360 0.0 2.0 0.00 0.00 0.00 83 1006.2
20260505232511 63 360 0.0 2.0 0.00 0.00 0.00 83 1006.0
20260505232008 63 360 0.0 2.0 0.00 0.00 0.00 81 1005.9
20260505231524 63 360 0.0 5.0 0.00 0.00 0.00 80 1005.8
20260505231007 63 360 0.0 5.0 0.00 0.00 0.00 80 1005.9
20260505230509 64 360 1.0 6.0 0.00 0.00 0.00 78 1006.0
20260505230037 64 360 2.0 9.0 0.00 0.00 0.00 77 1006.2
20260505225508 65 360 2.0 16.0 0.00 0.00 0.00 74 1006.2
20260505225007 66 360 2.0 16.0 0.00 0.00 0.00 69 1006.1
20260505224512 68 24 5.0 15.0 0.00 0.00 0.00 62 1006.0
20260505224005 69 41 6.0 16.0 0.00 0.00 0.00 54 1005.5
20260505223509 69 303 4.0 10.0 0.00 0.00 0.00 54 1004.4
20260505223028 70 360 4.0 11.0 0.00 0.00 0.00 53 1003.1
20260505222503 70 360 1.0 13.0 0.00 0.00 0.00 53 1003.0
20260505222003 70 360 4.0 19.0 0.00 0.00 0.00 52 1002.9
20260505221524 71 360 4.0 19.0 0.00 0.00 0.00 52 1002.8
20260505221009 71 169 5.0 15.0 0.00 0.00 0.00 52 1002.7
20260505220504 71 190 1.0 15.0 0.00 0.00 0.00 52 1002.4
20260505220009 71 123 2.0 15.0 0.00 0.00 0.00 51 1002.3
20260505215507 72 146 4.0 12.0 0.00 0.00 0.00 51 1002.4
20260505215005 72 84 4.0 13.0 0.00 0.00 0.00 51 1002.3
20260505214510 72 179 5.0 14.0 0.00 0.00 0.00 50 1002.3
20260505214006 72 304 4.0 14.0 0.00 0.00 0.00 51 1002.2
20260505213508 72 136 3.0 17.0 0.00 0.00 0.00 50 1002.2
20260505213024 72 284 6.0 15.0 0.00 0.00 0.00 49 1002.2
20260505212511 73 185 5.0 12.0 0.00 0.00 0.00 49 1002.1
20260505212010 73 148 4.0 18.0 0.00 0.00 0.00 49 1002.1
20260505211504 73 151 5.0 18.0 0.00 0.00 0.00 48 1002.2
20260505211004 74 173 5.0 14.0 0.00 0.00 0.00 48 1002.2
20260505210503 74 184 1.0 14.0 0.00 0.00 0.00 49 1002.0
20260505210007 74 137 5.0 16.0 0.00 0.00 0.00 48 1002.1
20260505205503 74 173 6.0 23.0 0.00 0.00 0.00 48 1002.0
20260505205007 75 360 6.0 23.0 0.00 0.00 0.00 48 1001.9
20260505204509 75 360 6.0 15.0 0.00 0.00 0.00 47 1002.0
20260505204015 75 360 4.0 23.0 0.00 0.00 0.00 47 1001.9
20260505203504 75 360 8.0 23.0 0.00 0.00 0.00 46 1002.0
20260505203025 76 360 4.0 15.0 0.00 0.00 0.00 46 1002.1
20260505202505 76 360 6.0 15.0 0.00 0.00 0.00 45 1002.1
20260505202010 76 360 4.0 19.0 0.00 0.00 0.00 47 1002.1
20260505201519 76 360 4.0 23.0 0.00 0.00 0.00 45 1002.1
20260505201007 76 360 7.0 23.0 0.00 0.00 0.00 45 1002.1
20260505200503 77 360 5.0 16.0 0.00 0.00 0.00 44 1002.0
20260505200006 78 360 5.0 16.0 0.00 0.00 0.00 44 1002.1
20260505195503 78 360 4.0 16.0 0.00 0.00 0.00 44 1002.0
20260505195004 78 360 3.0 14.0 0.00 0.00 0.00 44 1002.1
20260505194508 78 360 3.0 20.0 0.00 0.00 0.00 44 1002.3
20260505194007 78 360 4.0 20.0 0.00 0.00 0.00 44 1002.4
20260505193503 78 360 4.0 19.0 0.00 0.00 0.00 43 1002.2
20260505193012 78 360 8.0 19.0 0.00 0.00 0.00 42 1002.2
20260505192506 79 360 5.0 16.0 0.00 0.00 0.00 43 1002.5
20260505192009 79 360 6.0 16.0 0.00 0.00 0.00 41 1002.5
20260505191519 79 360 3.0 11.0 0.00 0.00 0.00 43 1002.6
20260505191012 79 360 4.0 12.0 0.00 0.00 0.00 42 1002.6
20260505190517 79 360 4.0 20.0 0.00 0.00 0.00 44 1002.6
20260505190026 79 360 5.0 20.0 0.00 0.00 0.00 43 1002.6
20260505185512 79 360 3.0 12.0 0.00 0.00 0.00 43 1002.8
20260505185003 79 360 4.0 15.0 0.00 0.00 0.00 43 1002.8
20260505184508 78 360 4.0 15.0 0.00 0.00 0.00 42 1002.8
20260505184004 79 360 5.0 13.0 0.00 0.00 0.00 42 1002.9
20260505183503 78 360 2.0 13.0 0.00 0.00 0.00 44 1003.1
20260505183009 78 360 4.0 13.0 0.00 0.00 0.00 43 1003.3
20260505182506 77 360 3.0 16.0 0.00 0.00 0.00 44 1003.4
20260505182009 77 360 4.0 16.0 0.00 0.00 0.00 44 1003.4
20260505181515 77 360 5.0 14.0 0.00 0.00 0.00 44 1003.4
20260505181009 77 360 4.0 14.0 0.00 0.00 0.00 44 1003.4
20260505180508 76 360 5.0 16.0 0.00 0.00 0.00 44 1003.4
20260505180018 76 360 4.0 16.0 0.00 0.00 0.00 45 1003.4
20260505175507 76 360 5.0 16.0 0.00 0.00 0.00 44 1003.6
20260505175014 76 360 6.0 16.0 0.00 0.00 0.00 44 1003.8
20260505174524 75 360 4.0 16.0 0.00 0.00 0.00 45 1003.7
20260505174016 76 360 6.0 10.0 0.00 0.00 0.00 44 1003.9
20260505173503 76 360 4.0 13.0 0.00 0.00 0.00 45 1004.0
20260505173005 75 360 6.0 13.0 0.00 0.00 0.00 46 1003.9
20260505172507 76 360 8.0 14.0 0.00 0.00 0.00 44 1003.8
20260505172008 77 360 5.0 16.0 0.00 0.00 0.00 44 1003.9
20260505171519 76 360 7.0 16.0 0.00 0.00 0.00 44 1003.9
20260505171007 76 360 4.0 15.0 0.00 0.00 0.00 45 1003.8
20260505170509 76 360 5.0 15.0 0.00 0.00 0.00 45 1003.9
20260505170027 76 360 2.0 11.0 0.00 0.00 0.00 46 1004.0
20260505165511 75 360 5.0 11.0 0.00 0.00 0.00 46 1004.1
20260505165011 75 360 5.0 17.0 0.00 0.00 0.00 44 1004.0
20260505164521 75 360 6.0 17.0 0.00 0.00 0.00 46 1004.3
20260505164010 75 360 5.0 14.0 0.00 0.00 0.00 44 1004.3
20260505163508 75 360 3.0 14.0 0.00 0.00 0.00 47 1004.5
20260505163025 74 360 3.0 10.0 0.00 0.00 0.00 46 1004.7
20260505162509 74 360 5.0 11.0 0.00 0.00 0.00 45 1004.8
20260505162008 74 360 6.0 11.0 0.00 0.00 0.00 48 1004.9
20260505161510 73 360 3.0 14.0 0.00 0.00 0.00 46 1005.1
20260505161007 73 360 4.0 14.0 0.00 0.00 0.00 48 1005.1
20260505160512 73 360 2.0 9.0 0.00 0.00 0.00 51 1005.2
20260505153026 72 360 5.0 14.0 0.00 0.00 0.00 46 1005.8
20260505152508 72 360 4.0 9.0 0.00 0.00 0.00 50 1005.9
20260505152013 71 360 2.0 11.0 0.00 0.00 0.00 49 1006.0
20260505151532 71 360 4.0 12.0 0.00 0.00 0.00 49 1006.2
20260505151009 71 360 6.0 12.0 0.00 0.00 0.00 46 1006.1
20260505150510 71 360 3.0 11.0 0.00 0.00 0.00 49 1006.1
20260505140508 67 360 4.0 10.0 0.00 0.00 0.00 52 1005.9
20260505125004 60 360 0.0 10.0 0.00 0.00 0.00 66 1006.6
20260505124504 59 360 2.0 10.0 0.00 0.00 0.00 69 1006.7
20260505124004 59 360 3.0 8.0 0.00 0.00 0.00 66 1006.8
20260505123503 58 360 3.0 8.0 0.00 0.00 0.00 68 1006.9
20260505123004 57 360 1.0 8.0 0.00 0.00 0.00 71 1006.9
20260505122503 57 360 1.0 9.0 0.00 0.00 0.00 74 1006.9
20260505122003 56 360 3.0 9.0 0.00 0.00 0.00 75 1006.9
20260505121504 55 360 2.0 5.0 0.00 0.00 0.00 78 1007.0
20260505121003 54 360 2.0 3.0 0.00 0.00 0.00 81 1007.0
20260505120503 52 24 1.0 5.0 0.00 0.00 0.00 82 1007.0
20260505120026 51 360 1.0 8.0 0.00 0.00 0.00 84 1007.1
20260505115502 50 161 2.0 8.0 0.00 0.00 0.00 97 1007.0
20260505115003 49 360 0.0 2.0 0.00 0.00 0.00 97 1007.0
20260505114504 48 360 0.0 2.0 0.00 0.00 0.00 97 1007.1
20260505114004 47 360 1.0 2.0 0.00 0.00 0.00 97 1007.1
20260505113505 46 360 0.0 4.0 0.00 0.00 0.00 97 1007.1
20260505113007 44 360 1.0 4.0 0.00 0.00 0.00 97 1007.1
20260505112503 43 360 0.0 2.0 0.00 0.00 0.00 97 1007.2
20260505112003 43 28 0.0 2.0 0.00 0.00 0.00 97 1007.2
20260505111507 42 360 0.0 2.0 0.00 0.00 0.00 96 1007.2
20260505111006 41 360 0.0 2.0 0.00 0.00 0.00 96 1007.2
20260505110502 41 360 0.0 2.0 0.00 0.00 0.00 96 1007.1
20260505102006 35 360 0.0 0.0 0.00 0.00 0.00 95 1007.2
20260505101519 35 360 0.0 0.0 0.00 0.00 0.00 95 1007.2
20260505101003 35 360 0.0 2.0 0.00 0.00 0.00 95 1007.2
20260505100503 35 360 0.0 2.0 0.00 0.00 0.00 95 1007.1
20260505100019 34 360 0.0 2.0 0.00 0.00 0.00 95 1007.0
20260505095504 34 360 0.0 2.0 0.00 0.00 0.00 95 1007.0
20260505095003 34 360 0.0 0.0 0.00 0.00 0.00 95 1007.0
20260505094508 34 360 0.0 2.0 0.00 0.00 0.00 95 1007.1
20260505094004 34 360 0.0 2.0 0.00 0.00 0.00 95 1007.1
20260505093504 34 360 0.0 0.0 0.00 0.00 0.00 94 1007.0
20260505093008 34 360 0.0 0.0 0.00 0.00 0.00 94 1006.9
20260505092507 34 360 0.0 0.0 0.00 0.00 0.00 94 1007.0
20260505092007 34 360 0.0 0.0 0.00 0.00 0.00 94 1007.0
20260505091522 34 360 0.0 0.0 0.00 0.00 0.00 94 1007.0
20260505091005 34 360 0.0 0.0 0.00 0.00 0.00 94 1007.0
20260505090506 34 360 0.0 2.0 0.00 0.00 0.00 94 1007.0
20260505090026 34 360 0.0 2.0 0.00 0.00 0.00 94 1007.1
20260505085506 34 360 0.0 0.0 0.00 0.00 0.00 94 1007.1
20260505085004 34 360 0.0 2.0 0.00 0.00 0.00 94 1007.1
20260505084512 34 360 0.0 1.0 0.00 0.00 0.00 94 1007.1
20260505084004 34 360 0.0 0.0 0.00 0.00 0.00 94 1007.1
20260505083507 34 360 0.0 0.0 0.00 0.00 0.00 94 1007.2
20260505083011 34 360 0.0 0.0 0.00 0.00 0.00 94 1007.2
20260505082504 34 360 0.0 0.0 0.00 0.00 0.00 94 1007.2
20260505082007 34 360 0.0 0.0 0.00 0.00 0.00 94 1007.2
20260505081516 35 360 0.0 0.0 0.00 0.00 0.00 94 1007.2
20260505081007 34 360 0.0 2.0 0.00 0.00 0.00 94 1007.3
20260505080507 35 360 0.0 2.0 0.00 0.00 0.00 94 1007.4
20260505080016 35 360 0.0 2.0 0.00 0.00 0.00 94 1007.4
20260505075505 35 360 0.0 1.0 0.00 0.00 0.00 94 1007.3
20260505075007 35 360 0.0 0.0 0.00 0.00 0.00 94 1007.3
20260505074515 35 360 0.0 1.0 0.00 0.00 0.00 94 1007.3
20260505074007 35 360 0.0 1.0 0.00 0.00 0.00 94 1007.3
20260505073507 35 360 0.0 1.0 0.00 0.00 0.00 94 1007.3
20260505073028 35 360 0.0 0.0 0.00 0.00 0.00 94 1007.3
20260505072511 35 360 0.0 0.0 0.00 0.00 0.00 94 1007.3
20260505072009 35 360 0.0 2.0 0.00 0.00 0.00 94 1007.3
20260505071516 35 360 0.0 2.0 0.00 0.00 0.00 94 1007.3
20260505071004 35 360 0.0 2.0 0.00 0.00 0.00 94 1007.2
20260505070510 35 360 0.0 2.0 0.00 0.00 0.00 94 1007.2
20260505070020 35 360 0.0 1.0 0.00 0.00 0.00 94 1007.3
20260505065507 35 360 0.0 1.0 0.00 0.00 0.00 94 1007.3
20260505065008 35 360 0.0 0.0 0.00 0.00 0.00 94 1007.3
20260505064534 35 360 0.0 0.0 0.00 0.00 0.00 93 1007.4
20260505064005 36 360 0.0 2.0 0.00 0.00 0.00 93 1007.4
20260505063507 36 360 0.0 2.0 0.00 0.00 0.00 93 1007.4
20260505063018 36 360 0.0 2.0 0.00 0.00 0.00 94 1007.4
20260505062510 36 360 0.0 2.0 0.00 0.00 0.00 94 1007.3
20260505062011 36 360 0.0 0.0 0.00 0.00 0.00 94 1007.3
20260505061530 36 360 0.0 0.0 0.00 0.00 0.00 93 1007.3
20260505061008 36 360 0.0 0.0 0.00 0.00 0.00 93 1007.2
20260505060512 36 360 0.0 0.0 0.00 0.00 0.00 93 1007.2
20260505060019 36 360 0.0 2.0 0.00 0.00 0.00 93 1007.2
20260505055511 37 360 0.0 2.0 0.00 0.00 0.00 93 1007.3
20260505055010 37 360 0.0 2.0 0.00 0.00 0.00 93 1007.3
20260505054530 37 360 0.0 0.0 0.00 0.00 0.00 93 1007.2
20260505054012 37 360 0.0 0.0 0.00 0.00 0.00 93 1007.2
20260505053509 37 360 0.0 2.0 0.00 0.00 0.00 93 1007.2
20260505053018 37 360 0.0 2.0 0.00 0.00 0.00 93 1007.2
20260505052510 37 360 0.0 0.0 0.00 0.00 0.00 93 1007.1
20260505052011 37 360 0.0 0.0 0.00 0.00 0.00 93 1007.1
20260505051521 37 360 0.0 2.0 0.00 0.00 0.00 93 1007.1
20260505051009 38 360 0.0 2.0 0.00 0.00 0.00 93 1007.1
20260505050507 38 360 0.0 2.0 0.00 0.00 0.00 93 1007.2
20260505041510 39 360 0.0 2.0 0.00 0.00 0.00 92 1006.8
20260505041004 39 360 0.0 1.0 0.00 0.00 0.00 92 1006.8
20260505040506 39 360 0.0 2.0 0.00 0.00 0.00 92 1006.8
20260505040008 40 360 0.0 2.0 0.00 0.00 0.00 92 1006.8
20260505035506 40 360 0.0 2.0 0.00 0.00 0.00 92 1006.8
20260505035003 40 360 0.0 2.0 0.00 0.00 0.00 92 1006.8
20260505034513 40 360 0.0 2.0 0.00 0.00 0.00 92 1006.7
20260505034011 40 360 0.0 2.0 0.00 0.00 0.00 92 1006.7
20260505033507 41 360 0.0 2.0 0.00 0.00 0.00 92 1006.6
20260505033021 41 360 0.0 2.0 0.00 0.00 0.00 91 1006.7
20260505032507 41 360 0.0 1.0 0.00 0.00 0.00 91 1006.7
20260505032007 41 360 0.0 2.0 0.00 0.00 0.00 91 1006.7
20260505031539 41 360 0.0 2.0 0.00 0.00 0.00 91 1006.6
20260505031007 42 360 0.0 0.0 0.00 0.00 0.00 91 1006.7
20260505030504 42 360 0.0 0.0 0.00 0.00 0.00 91 1006.6
20260505030009 42 360 0.0 2.0 0.00 0.00 0.00 91 1006.6
20260505025504 42 360 0.0 2.0 0.00 0.00 0.00 91 1006.7
20260505025004 42 360 0.0 2.0 0.00 0.00 0.00 91 1006.9
20260505024520 42 360 0.0 2.0 0.00 0.00 0.00 91 1006.9
20260505024007 42 360 0.0 2.0 0.00 0.00 0.00 91 1007.0
20260505023507 43 360 0.0 2.0 0.00 0.00 0.00 91 1006.9
20260505023014 43 360 0.0 2.0 0.00 0.00 0.00 91 1006.9
20260505022507 43 360 0.0 2.0 0.00 0.00 0.00 91 1007.0
20260505022007 43 360 0.0 2.0 0.00 0.00 0.00 90 1007.1
20260505021525 43 360 0.0 2.0 0.00 0.00 0.00 90 1007.1
20260505021011 44 360 0.0 2.0 0.00 0.00 0.00 90 1007.1
20260505020507 44 360 0.0 2.0 0.00 0.00 0.00 90 1006.9
20260505020031 44 360 0.0 2.0 0.00 0.00 0.00 90 1006.9
20260505015508 44 360 0.0 2.0 0.00 0.00 0.00 90 1006.9
20260505015003 44 360 0.0 0.0 0.00 0.00 0.00 90 1006.8
20260505014509 44 360 0.0 0.0 0.00 0.00 0.00 90 1006.9
20260505014008 45 360 0.0 0.0 0.00 0.00 0.00 89 1006.8
20260505013509 45 360 0.0 0.0 0.00 0.00 0.00 89 1007.0
20260505013014 45 360 0.0 2.0 0.00 0.00 0.00 89 1006.8
20260505012505 45 360 0.0 2.0 0.00 0.00 0.00 89 1006.8
20260505012009 45 360 0.0 2.0 0.00 0.00 0.00 89 1006.8
20260505011529 46 360 0.0 2.0 0.00 0.00 0.00 89 1006.5
20260505011005 46 360 0.0 2.0 0.00 0.00 0.00 88 1006.4
20260505010508 46 360 0.0 2.0 0.00 0.00 0.00 88 1006.2
20260505010020 46 360 1.0 2.0 0.00 0.00 0.00 88 1006.2
20260505005507 47 360 0.0 2.0 0.00 0.00 0.00 87 1006.2
20260505005009 47 360 0.0 0.0 0.00 0.00 0.00 87 1006.2
20260505004542 47 360 0.0 2.0 0.00 0.00 0.00 87 1006.1
20260505004008 48 360 0.0 2.0 0.00 0.00 0.00 86 1006.1
20260505003511 48 360 0.0 2.0 0.00 0.00 0.00 85 1006.0
20260505003009 48 360 0.0 2.0 0.00 0.00 0.00 85 1005.9
20260505002514 49 360 0.0 2.0 0.00 0.00 0.00 84 1005.8